Powrót do katalogu

THOR ABLESTAR DEB

AktywnyLEO
NORAD 121·DEBRIS·🇺🇸 United States

Wystrzelony Jun 29, 1961 z Cape Canaveral Space Force Station

Loading…

Następne Przeloty (najbliższe 24 godziny)

TLE

ŚwieżeSource: Space-Track

Epoka: Sep 7, 2026, 07:24 UTC

1 00121U 61015F   26250.30891732 -.00000030  00000-0  32055-4 0  9998
2 00121  66.7471 197.3662 0098569 305.2957  53.8937 14.00242992337864

Śledź THOR ABLESTAR DEB w czasie rzeczywistym z AllMySat

Download on the App Store